Location: Presov
(49.0000°N, 21.2500°E)
Time: 21:53:57
(UTC+02:00)

ISS - Pass Details

Date: 17 May 2025
Orbit: 415 x 416 km, 51.6° (Epoch: 16 June)

Event Time Altitude Azimuth Distance (km) Brightness Sun altitude
Rises 22:14:45 0° 286° (WNW) 2,361 0.9 -15.0°
Reaches altitude 10° 22:16:52 10° 290° (WNW) 1,496 -0.2 -15.2°
Maximum altitude 22:20:12 63° 12° (NNE) 471 -3.4 -15.5°
Enters shadow 22:22:22 20° 90° (E) 1,037 -2.1 -15.7°
